[[{"header":{"parameterUnit":"m.s-1","parameterCategory":1,"la1":30.2991,"la2":30.254,"lo1":-89.0895,"lo2":-89.0444,"dy":0.0017,"dx":0.0017,"nx":28,"ny":28,"refTime":"2023-09-19T03:00:00:Z","depth":0,"parameterNumber":2,"parameterNumberName":"U-component_of_WINDS"},"data":[0,0,0,0,0,0,0,0,0,0,0,0,0,0,0,0,0,0,0,0,0,0,0,0,0,0,0,0,0,0,0,0,0,0,0,0,0,0,0,0,0,0,0,0,0,0,0,0,0,0,0,0,0,0,0,0,0,0,-7.3256,-7.3259,0,-7.353,-7.3533,-7.3536,-7.3471,-7.3466,-7.346,-7.3455,-7.3738,-7.375,-7.3762,0,0,0,0,0,0,0,0,0,0,0,0,0,-7.2683,-7.2694,-7.3256,-7.3259,-7.3263,-7.353,-7.3533,-7.3537,-7.3472,-7.3465,-7.3459,-7.3453,-7.3734,-7.3748,-7.3763,0,0,0,0,0,0,0,0,0,0,0,0,0,-7.2942,-7.2697,-7.3255,-7.3262,-7.3265,-7.3529,-7.3534,-7.3538,-7.3473,-7.3465,-7.3457,-7.345,-7.3729,-7.3747,-7.3765,-7.4039,0,0,-7.3822,-7.383,0,0,0,0,0,0,0,0,-7.2927,-7.2963,-7.3258,-7.3262,-7.3266,-7.3458,-7.3435,-7.3706,-7.3475,-7.3394,-7.3455,-7.3446,-7.3651,-7.3676,-7.3745,-7.4052,-7.4064,-7.3824,-7.3835,-7.3843,-7.3849,0,0,0,0,0,0,0,-7.291,-7.2951,-7.3364,-7.3262,-7.3267,-7.3254,-7.3282,-7.3486,-7.3564,-7.3401,-7.3397,-7.343,-7.3652,-7.3727,-7.3751,-7.4069,-7.3824,-7.384,-7.3852,-7.3859,-7.4624,-7.4633,0,0,0,0,0,0,-7.2887,-7.2936,-7.3355,-7.3372,-7.3074,-7.3271,-7.3302,-7.3405,-7.3561,-7.3578,-7.3436,-7.3426,-7.3699,-7.3729,-7.376,-7.4096,-7.3843,-7.3861,-7.3871,-7.4615,-7.4626,-7.4636,0,0,0,0,0,0,-7.2875,-7.2925,-7.3344,-7.3154,-7.3206,-7.3289,-7.3405,-7.3414,-7.3488,-7.3588,-7.3602,-7.3498,-7.3694,-7.3734,-7.3972,-7.4104,-7.3869,-7.3886,-7.4604,-7.4618,-7.4631,-7.4765,0,0,0,0,0,0,-7.2859,-7.2921,-7.3023,-7.3156,-7.3216,-7.3549,-7.3413,-7.3425,-7.3521,-7.351,-7.365,-7.3665,-7.3691,-7.3945,-7.3991,-7.4126,-7.3901,-7.4593,-7.4611,-7.4627,-7.4749,-7.4782,-7.4809,0,0,0,0,0,-7.2839,-7.3049,-7.3029,-7.308,-7.3346,-7.3556,-7.3591,-7.3615,-7.3531,-7.3637,-7.3703,-7.3661,-7.4084,-7.397,-7.4021,-7.4163,-7.4584,-7.4605,-7.4625,-7.4735,-7.4775,-7.4809,0,0,0,0,0,0,-7.2927,-7.3066,-7.3045,-7.3304,-7.342,-7.3545,-7.3677,-7.3655,-7.3796,-7.378,-7.3805,-7.3838,-7.4082,-7.4147,-7.4018,-7.4441,-7.4322,-7.4354,-7.4388,-7.4427,-7.4457,-7.4435,-7.3916,0,0,0,0,0,-7.2977,-7.3135,-7.3249,-7.3466,-7.3526,-7.3593,-7.3685,-7.3695,-7.3815,-7.3863,-7.3946,-7.4066,-7.4227,-7.4331,-7.4483,-7.476,-7.4793,-7.4885,-7.4915,-7.4939,-7.4965,-7.5123,-7.5167,-7.4703,-7.4703,-7.4703,0,0,-7.308,-7.3176,-7.3274,-7.3487,-7.3577,-7.3743,-7.3633,-7.3812,-7.3936,-7.3891,-7.412,-7.4187,-7.4323,-7.4584,-7.4702,-7.4645,-7.5102,-7.4965,-7.4984,-7.4997,-7.5149,-7.5193,-7.5231,-7.4717,-7.4715,-7.4713,0,0,-7.3354,-7.3441,-7.3634,-7.373,-7.3869,-7.3914,-7.3961,-7.4093,-7.4136,-7.4368,-7.4339,-7.449,-7.4764,-7.4864,-7.4951,-7.5275,-7.5244,-7.5325,-7.5481,-7.5634,-7.5671,-7.5703,-7.5821,-7.5863,-7.5351,-7.5352,-7.5352,0,-7.3464,-7.3711,-7.3736,-7.3921,-7.4017,-7.3988,-7.4187,-7.4278,-7.446,-7.4529,-7.4464,-7.4813,-7.4902,-7.5188,-7.5269,-7.5339,-7.5397,-7.5306,-7.5663,-7.5696,-7.5727,-7.584,-7.5884,-7.5361,-7.536,-7.5359,-7.5358,0,-7.3843,-7.4016,-7.4156,-7.4335,-7.4449,-7.4639,-7.4697,-7.481,-7.4813,-7.4867,-7.5108,-7.5216,-7.5393,-7.5462,-7.5465,-7.5753,-7.5713,-7.5656,-7.5536,-7.578,-7.5886,-7.593,-7.5374,-7.537,-7.5368,-7.5365,0,0,-7.417,-7.4368,-7.4419,-7.4503,-7.4661,-7.4796,-7.499,-7.5164,-7.5262,-7.5392,-7.5557,-7.5795,-7.5746,-7.5845,-7.5861,-7.5996,-7.6251,-7.5923,-7.5927,-7.5981,-7.6579,-7.662,-7.6669,-7.6234,-7.6242,-7.6249,-7.6568,0,-7.4458,-7.4795,-7.4829,-7.5132,-7.5295,-7.5276,-7.5445,-7.5562,-7.562,-7.577,-7.5835,-7.6004,-7.5925,-7.5985,-7.6119,-7.6191,-7.6371,-7.617,-7.6389,-7.6396,-7.6353,-7.6724,-7.6766,-7.7061,-7.661,-7.6617,-7.6622,0,-7.4835,-7.498,-7.53,-7.5442,-7.5512,-7.5662,-7.583,-7.5972,-7.6108,-7.6142,-7.6258,-7.6259,-7.6463,-7.6341,-7.6624,-7.6487,-7.658,-7.6632,-7.6644,-7.6662,-7.6521,-7.6753,-7.7155,-7.7199,-7.6687,-7.6682,-7.6677,0,-7.5044,-7.5319,-7.5547,-7.562,-7.5791,-7.5899,-7.5975,-7.6103,-7.6209,-7.6357,-7.6427,-7.6597,-7.669,-7.6824,-7.6873,-7.6778,-7.7157,-7.7036,-7.7192,-7.7191,-7.7268,-7.7262,-7.769,-7.7332,-7.7331,-7.7331,-7.733,0,-7.536,-7.5556,-7.5644,-7.5784,-7.6007,-7.6048,-7.6269,-7.6341,-7.6457,-7.6614,-7.6609,-7.6758,-7.6814,-7.6974,-7.7015,-7.7247,-7.7289,-7.7324,-7.7332,-7.7323,-7.7318,-7.7381,-7.7362,-7.7342,-7.734,-7.7338,-7.7336,0,-7.5626,-7.5692,-7.5941,-7.6086,-7.6128,-7.6286,-7.6411,-7.6549,-7.661,-7.681,-7.6859,-7.6954,-7.7143,-7.7207,-7.7434,-7.7463,-7.7733,-7.7724,-7.7686,-7.7687,-7.784,-7.7825,-7.8322,-7.839,-7.7988,-7.7992,-7.7995,0,-7.5821,-7.5973,-7.6137,-7.6242,-7.6324,-7.6493,-7.6603,-7.6653,-7.6767,-7.694,-7.7059,-7.7247,-7.7398,-7.7702,-7.7793,-7.797,-7.7964,-7.8128,-7.799,-7.7979,-7.7968,-7.7957,-7.7974,-7.8151,-7.8155,-7.8158,-7.8161,0,-7.6162,-7.619,-7.6347,-7.652,-7.6652,-7.6789,-7.6923,-7.701,-7.7081,-7.7212,-7.7405,-7.7524,-7.7761,-7.7948,-7.8131,-7.8213,-7.8202,-7.8205,-7.8251,-7.8241,-7.8213,-7.8232,-7.7754,-7.8192,-7.8189,-7.8186,-7.8185,-7.8184,-7.6399,-7.6536,-7.6674,-7.6852,-7.696,-7.7087,-7.7226,-7.7307,-7.7468,-7.7664,-7.7686,-7.7896,-7.8038,-7.8282,-7.8375,-7.8542,-7.8497,-7.8562,-7.8578,-7.8593,-7.8606,-7.8191,-7.8576,-7.8575,-7.8574,-7.8574,-7.8573,0,-7.674,-7.683,-7.6994,-7.7183,-7.7326,-7.7305,-7.7455,-7.7575,-7.776,-7.7893,-7.8045,-7.8272,-7.8457,-7.8567,-7.8754,-7.8868,-7.8868,-7.8915,-7.8905,-7.8926,-7.8635,-7.8576,-7.8913,-7.8913,-7.8912,-7.8912,-7.8912,-7.8912,-7.6933,-7.7164,-7.7211,-7.7498,-7.7588,-7.7793,-7.7881,-7.8001,-7.8108,-7.8362,-7.8516,-7.8587,-7.8714,-7.8912,-7.9083,-7.9111,-7.918,-7.9232,-7.9256,-7.8981,-7.8946,-7.8912,-7.8858,-7.9247,-7.9248,-7.9533,-7.9536,-7.9538]},{"header":{"parameterUnit":"m.s-1","parameterCategory":1,"la1":30.2991,"la2":30.254,"lo1":-89.0895,"lo2":-89.0444,"dy":0.0017,"dx":0.0017,"nx":28,"ny":28,"refTime":"2023-09-19T03:00:00:Z","depth":0,"parameterNumber":3,"parameterNumberName":"V-component_of_WINDS"},"data":[0,0,0,0,0,0,0,0,0,0,0,0,0,0,0,0,0,0,0,0,0,0,0,0,0,0,0,0,0,0,0,0,0,0,0,0,0,0,0,0,0,0,0,0,0,0,0,0,0,0,0,0,0,0,0,0,0,0,-2.9615,-2.9611,0,-2.9217,-2.9212,-2.9208,-2.8923,-2.892,-2.8918,-2.8916,-2.8487,-2.8478,-2.8469,0,0,0,0,0,0,0,0,0,0,0,0,0,-3.0104,-3.0096,-2.9615,-2.961,-2.9605,-2.9218,-2.9212,-2.9206,-2.8923,-2.892,-2.8917,-2.8915,-2.849,-2.8479,-2.8468,0,0,0,0,0,0,0,0,0,0,0,0,0,-2.9817,-3.0094,-2.9616,-2.9418,-2.9396,-2.9219,-2.9212,-2.9205,-2.8924,-2.892,-2.8917,-2.8914,-2.8494,-2.848,-2.8467,-2.8448,0,0,-2.8424,-2.8418,0,0,0,0,0,0,0,0,-2.9834,-2.9799,-2.9452,-2.9431,-2.9406,-2.9116,-2.9227,-2.8951,-2.8924,-2.9102,-2.8916,-2.8912,-2.8698,-2.8667,-2.8599,-2.8428,-2.841,-2.8423,-2.8414,-2.8408,-2.8404,0,0,0,0,0,0,0,-2.9854,-2.9815,-2.9457,-2.9447,-2.9419,-2.934,-2.9295,-2.9173,-2.8923,-2.9086,-2.9065,-2.9023,-2.8684,-2.8613,-2.8587,-2.8404,-2.8423,-2.8411,-2.8402,-2.8397,-2.8185,-2.8188,0,0,0,0,0,0,-2.9908,-2.9833,-2.9469,-2.9445,-2.9617,-2.9334,-2.9284,-2.9212,-2.8924,-2.8877,-2.9026,-2.9011,-2.8639,-2.8603,-2.8571,-2.8524,-2.8408,-2.8395,-2.8387,-2.8183,-2.8186,-2.8189,0,0,0,0,0,0,-2.992,-2.9879,-2.9485,-2.9633,-2.9577,-2.9329,-2.9251,-2.9206,-2.9135,-2.8879,-2.883,-2.9001,-2.8635,-2.859,-2.848,-2.8506,-2.8389,-2.8376,-2.8179,-2.8184,-2.8188,-2.8437,0,0,0,0,0,0,-2.9935,-2.9885,-2.9882,-2.9636,-2.9571,-2.9411,-2.9253,-2.9201,-2.9114,-2.9091,-2.8842,-2.8797,-2.8629,-2.8502,-2.8466,-2.8484,-2.8365,-2.8176,-2.8181,-2.8186,-2.8425,-2.8449,-2.8469,0,0,0,0,0,-2.9954,-2.9966,-2.9884,-2.9841,-2.9564,-2.9413,-2.9375,-2.9187,-2.9118,-2.9108,-2.8941,-2.8805,-2.8509,-2.8494,-2.845,-2.8465,-2.8173,-2.818,-2.8186,-2.8415,-2.8444,-2.8469,0,0,0,0,0,0,-3.0216,-2.993,-2.9836,-2.977,-2.9619,-2.9366,-2.9349,-2.9225,-2.9085,-2.9068,-2.8832,-2.8778,-2.8691,-2.8565,-2.8554,-2.8426,-2.8323,-2.8321,-2.8512,-2.8538,-2.856,-2.8591,-2.8354,0,0,0,0,0,-3.0268,-3.0178,-2.9929,-2.9894,-2.9823,-2.96,-2.9527,-2.9395,-2.9226,-2.9158,-2.8984,-2.8819,-2.8686,-2.8605,-2.847,-2.8404,-2.834,-2.8391,-2.8414,-2.8433,-2.8434,-2.838,-2.8398,-2.8209,-2.8209,-2.8209,0,0,-3.0371,-3.0203,-3.016,-2.9942,-2.981,-2.9713,-2.9548,-2.9454,-2.9377,-2.9141,-2.9028,-2.8893,-2.8691,-2.8602,-2.8554,-2.8495,-2.8471,-2.8441,-2.8459,-2.8448,-2.8388,-2.8406,-2.8422,-2.8214,-2.8213,-2.8212,0,0,-3.051,-3.0377,-3.0331,-3.0201,-3.0004,-2.9853,-2.9843,-2.9606,-2.951,-2.9393,-2.9212,-2.9111,-2.8892,-2.8753,-2.8655,-2.8732,-2.8598,-2.8693,-2.8809,-2.8759,-2.8774,-2.8786,-2.8808,-2.8819,-2.8695,-2.8695,-2.8696,0,-3.0662,-3.0517,-3.0321,-3.0237,-3.0143,-2.9929,-2.9875,-2.9755,-2.9522,-2.9457,-2.9396,-2.9111,-2.896,-2.8831,-2.885,-2.8779,-2.875,-2.8722,-2.879,-2.8799,-2.8807,-2.8825,-2.8834,-2.8708,-2.8707,-2.8705,-2.8704,0,-3.071,-3.0611,-3.0596,-3.0381,-3.0284,-3.0215,-3.0,-2.9923,-2.9796,-2.965,-2.9527,-2.9338,-2.9158,-2.9117,-2.8991,-2.8966,-2.8936,-2.8836,-2.8727,-2.8841,-2.8853,-2.8859,-2.8726,-2.8722,-2.8718,-2.8715,0,0,-3.1008,-3.0683,-3.068,-3.0576,-3.0339,-3.0254,-3.0169,-2.9999,-2.9935,-2.9777,-2.9695,-2.9511,-2.9414,-2.9302,-2.9156,-2.9114,-2.9178,-2.9016,-2.9007,-2.9049,-2.913,-2.9207,-2.9219,-2.9088,-2.9088,-2.9089,-2.9145,0,-3.1107,-3.0956,-3.0773,-3.068,-3.058,-3.0372,-3.0296,-3.0137,-2.9996,-2.9883,-2.9721,-2.9593,-2.9479,-2.9408,-2.9357,-2.9183,-2.9191,-2.9176,-2.9,-2.8997,-2.9058,-2.9226,-2.9308,-2.9371,-2.915,-2.915,-2.9151,0,-3.1206,-3.1064,-3.0964,-3.0728,-3.0679,-3.0618,-3.0441,-3.034,-3.0149,-3.0047,-2.992,-2.9764,-2.9653,-2.9558,-2.9397,-2.9391,-2.9305,-2.9208,-2.9205,-2.918,-2.9081,-2.9202,-2.9388,-2.9397,-2.9157,-2.9157,-2.9156,0,-3.1429,-3.1211,-3.1121,-3.1039,-3.0764,-3.0723,-3.0605,-3.0412,-3.0319,-3.0161,-3.0095,-2.9926,-2.9832,-2.9698,-2.9495,-2.9446,-2.9352,-2.9242,-2.9257,-2.9263,-2.9248,-2.9251,-2.942,-2.9198,-2.9198,-2.9198,-2.9198,0,-3.1559,-3.1504,-3.1217,-3.1162,-3.109,-3.0874,-3.0806,-3.0667,-3.0496,-3.0401,-3.0207,-3.012,-2.986,-2.9739,-2.9578,-2.9464,-2.9423,-2.9331,-2.9289,-2.9348,-2.936,-2.9289,-2.9278,-2.92,-2.9199,-2.9199,-2.9199,0,-3.1797,-3.1604,-3.1491,-3.1239,-3.1173,-3.1131,-3.091,-3.0841,-3.0687,-3.0569,-3.0528,-3.0282,-3.0128,-2.9914,-2.9693,-2.9584,-2.949,-2.9425,-2.9558,-2.9533,-2.9558,-2.9558,-2.9686,-2.9688,-2.9471,-2.9473,-2.9475,0,-3.1893,-3.1846,-3.1589,-3.1516,-3.1406,-3.1289,-3.1193,-3.0974,-3.088,-3.0656,-3.0612,-3.0446,-3.0301,-3.0063,-2.9858,-2.9685,-2.9611,-2.9667,-2.9583,-2.9642,-2.9606,-2.9611,-2.9601,-2.9688,-2.9691,-2.9694,-2.9697,0,-3.2081,-3.1987,-3.1861,-3.1699,-3.1591,-3.1451,-3.13,-3.1248,-3.0995,-3.0897,-3.0742,-3.063,-3.0404,-3.0236,-3.0035,-2.99,-2.9753,-2.9724,-2.9718,-2.9777,-2.9855,-2.9809,-2.9611,-2.9723,-2.972,-2.9718,-2.9717,-2.9716,-3.2247,-3.2194,-3.2005,-3.1867,-3.1732,-3.1594,-3.1517,-3.1352,-3.1222,-3.1027,-3.0902,-3.075,-3.0548,-3.0263,-3.0135,-3.0005,-2.9946,-2.9938,-2.9935,-2.9936,-2.9954,-2.9878,-2.9967,-2.9966,-2.9965,-2.9964,-2.9963,0,-3.2423,-3.229,-3.2166,-3.1964,-3.1853,-3.1731,-3.1555,-3.1468,-3.134,-3.1169,-3.103,-3.0845,-3.068,-3.0461,-3.0277,-3.0214,-3.0141,-3.0172,-3.0174,-3.0143,-3.002,-3.0043,-3.0234,-3.0234,-3.0234,-3.0234,-3.0234,-3.0234,-3.2502,-3.2403,-3.2285,-3.2112,-3.1974,-3.1831,-3.1741,-3.1608,-3.147,-3.1276,-3.114,-3.1,-3.0804,-3.0603,-3.0442,-3.038,-3.0319,-3.0371,-3.0288,-3.0177,-3.0153,-3.013,-3.015,-3.0361,-3.0361,-3.0421,-3.0422,-3.0422]}]]